TIME,DELAY(SENSOR),PRES,OXYGEN,RAWTEMP,T(OPTODE),TCPHASE,FLUOR,BETA(BETA700),BETA(BETA412),BETA(BETA440),CDOM,C(CSC),ED(ED411.90),ED(ED443.80),ED(ED489.40),ED(ED554.70),LU(LU412.20),LU(LU443.80),LU(LU489.40),LU(LU555.00),COMP,TILTX,TILTY,CHECK
1359238759,5806,845.8900146484375000,168.5848999023437500,450.4173889160156000,9.0600566864013670,39.1588211059570300,55,114,97,78,81,12129,2146960137,2147516086,2147290496,2147506989,2147088027,2146931986,2147708224,2147123053,183,-1,9,27562
1359242355,5805,959.7899780273438000,208.9468994140625000,518.2537841796875000,6.9620490074157715,37.6789588928222660,56,112,98,79,80,12131,2146964964,2147515858,2147294400,2147517851,2147086665,2146922532,2147726427,2147122185,2499,-1,9,8109
1359245955,5809,969.2199707031250000,216.1930999755859400,524.7561035156250000,6.7593541145324710,37.3740081787109400,58,118,97,80,81,12129,2146959104,2147515419,2147299474,2147521572,2147085522,2146924726,2147725275,2147120256,111,-1,8,17218
1359249555,5803,995.6199951171875000,221.9568939208984400,534.3480224609375000,6.4597802162170410,37.2212409973144500,57,114,97,79,80,12130,2146964662,2147516873,2147300251,2147521444,2147087716,2146917568,2147726189,2147118601,3474,-1,9,8500
1359253155,5810,994.5000000000000000,230.4425048828125000,537.3713989257812000,6.3652110099792480,36.8134384155273440,57,117,98,79,81,12124,2146959771,2147516150,2147299693,2147522020,2147089188,2146925019,2147724854,2147120585,22,-1,9,44800
1359256755,5808,996.2199707031250000,234.0995025634765600,539.5507202148438000,6.2970008850097660,36.6590614318847660,57,124,98,79,81,12123,2146965467,2147515309,2147299126,2147523062,2147090102,2146926464,2147728886,2147120832,596,-1,9,26791
1359260355,5808,1006.0499877929688000,232.8034973144531200,538.0753173828125000,6.3431839942932130,36.7004508972168000,56,115,98,79,81,12124,2146962550,2147517019,2147296905,2147522102,2147090267,2146921243,2147728320,2147119725,345,-1,8,25024
1359263955,5808,1002.4400024414062000,231.7478942871093800,537.4829711914062000,6.3617191314697270,36.7455787658691400,57,115,97,79,81,12127,2146963008,2147518345,2147299666,2147522441,2147089773,2146919405,2147727926,2147121782,3175,-1,9,19444
1359267555,5805,1008.0100097656250000,233.5018005371093800,539.3494873046875000,6.3033008575439450,36.6863899230957000,57,114,98,79,80,12125,2146959616,2147520530,2147302372,2147523062,2147088301,2146924260,2147731492,2147121645,255,-1,9,64991
1359271155,5807,1000.8599853515625000,233.7364959716797000,540.9929199218750000,6.2518439292907715,36.7034301757812500,57,113,97,79,81,12125,2146962459,2147518838,2147300187,2147521462,2147091154,2146925193,2147725942,2147120082,424,-1,9,9764
1359274755,5806,994.0300292968750000,236.2315063476562500,543.2794799804688000,6.1802120208740230,36.6145896911621100,57,119,97,79,80,12120,2146962130,2147517604,2147299364,2147522212,2147089371,2146924617,2147726409,2147122715,3462,-1,9,63799
1359278355,5803,994.2000122070312000,237.4573059082031200,544.6235961914062000,6.1380858421325680,36.5751304626464840,56,113,97,79,80,12121,2146962816,2147518381,2147300123,2147523483,2147090267,2146921910,2147726756,2147120950,3342,-1,8,40936
1359281955,5807,989.8499755859375000,240.2176055908203000,547.0335083007812000,6.0625209808349610,36.4764099121093750,56,114,97,78,80,12121,2146960557,2147516553,2147302500,2147521883,2147089234,2146919094,2147726098,2147121472,3313,-1,9,41284
1359285555,5806,991.5800170898438000,241.3341064453125000,547.0748291015625000,6.0612277984619140,36.4200401306152340,56,115,99,78,80,12108,2146965037,2147520338,2147301257,2147522989,2147086409,2146919606,2147725860,2147123236,3427,-1,9,49129
1359289155,5809,984.2600097656250000,241.1461944580078000,548.9384765625000000,6.0027580261230470,36.4639396667480500,55,113,98,79,79,12102,2146964461,2147515428,2147300214,2147523026,2147089526,2146920704,2147732214,2147120978,52,0,9,3469
1359292755,5806,986.9899902343750000,244.1127014160156200,549.0792846679688000,5.9983367919921875,36.3158912658691400,56,119,97,80,80,12104,2146961636,2147516260,2147301796,2147523821,2147087478,2146925248,2147729965,2147120612,3462,-1,9,56539
1359296355,5806,991.8499755859375000,243.8627014160156200,548.9072875976562000,6.0037360191345215,36.3250885009765600,58,119,100,79,80,12106,2146958180,2147513225,2147304914,2147523136,2147091108,2146917778,2147729051,2147119835,2934,-1,9,42868
1359299955,5808,992.9799804687500000,243.4490966796875000,548.1873168945312000,6.0263271331787110,36.3329200744628900,56,113,98,78,81,12103,2146961024,2147513993,2147298907,2147525156,2147088384,2146920082,2147731602,2147119771,481,-1,9,48547
1359303555,5809,989.7199707031250000,242.6853027343750000,548.3359985351562000,6.0216622352600100,36.3743591308593750,58,117,107,79,80,12096,2146962267,2147519725,2147298898,2147523163,2147089216,2146918537,2147727259,2147120978,6,-1,9,7022
1359307155,5804,988.4500122070312000,242.7059936523437500,550.3779296875000000,5.9575791358947750,36.4104804992675800,57,114,97,80,81,12095,2146964946,2147514633,2147299172,2147523885,2147090624,2146918802,2147730422,2147121984,3267,-1,9,17575
1359310755,5807,996.2800292968750000,242.9187927246093800,548.7763061523438000,6.0078468322753910,36.3704605102539060,58,116,98,78,81,12100,2146966756,2147518445,2147302098,2147523309,2147088877,2146923721,2147729188,2147119469,168,-1,8,58511
1359314355,5807,995.7000122070312000,242.4897003173828000,548.7332153320312000,6.0091991424560550,36.3916091918945300,59,118,98,78,80,12095,2146964882,2147516068,2147301101,2147524315,2147089865,2146923337,2147731593,2147123766,127,-1,8,35217
1359317955,5808,996.7000122070312000,242.2994995117187500,549.3035888671875000,5.9912991523742680,36.4119682312011700,60,123,98,78,81,12099,2146961993,2147516690,2147303140,2147525787,2147090029,2146921691,2147727524,2147119872,88,-1,8,24491
1359321555,5806,991.8900146484375000,243.1049957275390600,548.1262207031250000,6.0282459259033200,36.3496208190918000,58,115,98,79,81,12093,2146964196,2147513901,2147301494,2147521060,2147092187,2146920338,2147727872,2147124388,2921,-1,9,37735
1359325155,5807,998.3699951171875000,244.2026977539062500,548.2932128906250000,6.0230050086975100,36.2969818115234400,57,115,97,80,80,12090,2146962038,2147516818,2147301531,2147521737,2147090898,2146923830,2147726875,2147119122,3533,-1,9,23307
1359328755,5807,989.4699707031250000,242.5321960449218800,549.0393066406250000,5.9995942115783690,36.3952293395996100,56,116,98,79,81,12090,2146963556,2147512777,2147299867,2147523318,2147087332,2146928265,2147725467,2147118701,3365,-1,9,35595
1359332355,5805,991.4400024414062000,243.9158935546875000,551.3577270507812000,5.9268212318420410,36.3671684265136700,58,114,101,79,80,12091,2146962852,2147514715,2147304960,2147522185,2147090532,2146924205,2147733586,2147120594,3415,-1,9,666
1359335955,5806,991.0499877929688000,246.5059967041015600,551.1704711914062000,5.9326992034912110,36.2344093322753900,57,116,98,79,80,12089,2146963428,2147517403,2147300644,2147521261,2147090788,2146920338,2147728493,2147122898,3293,-1,8,15439
1359339555,5809,990.9299926757812000,244.7476959228515600,551.9204101562500000,5.9091491699218750,36.3353385925293000,57,116,101,80,80,12085,2146965412,2147520292,2147301586,2147523318,2147087753,2146923913,2147727021,2147122560,25,-1,8,19974
1359343155,5808,994.1699829101562000,250.5274963378906200,554.3051757812500000,5.8342342376708980,36.0923995971679700,58,117,99,79,81,12088,2146962697,2147515520,2147303808,2147521060,2147088877,2146925540,2147734656,2147117778,39,-1,9,52076
1359346755,5808,990.1699829101562000,246.7783966064453000,551.7766723632812000,5.9136638641357420,36.2311286926269500,57,116,97,79,79,12086,2146964580,2147520228,2147300434,2147524315,2147090742,2146923730,2147733522,2147121225,385,-1,8,64095
1359350355,5807,990.8099975585938000,249.4123992919922000,555.1055297851562000,5.8090882301330570,36.1615295410156250,57,117,97,79,81,12081,2146963437,2147516745,2147303350,2147522176,2147088859,2146921746,2147728813,2147119387,2830,-1,9,40625
1359353955,5804,991.6599731445312000,250.0102996826172000,553.4852905273438000,5.8599967956542970,36.1028594970703100,57,117,99,80,81,12084,2146963117,2147519387,2147302061,2147522944,2147089993,2146922358,2147733430,2147116160,3562,-1,9,9667
1359357555,5807,991.4199829101562000,251.1584014892578000,555.8062133789062000,5.7870621681213380,36.0890617370605500,58,116,98,80,80,12082,2146962569,2147519561,2147301019,2147525266,2147089243,2146920621,2147728521,2147119853,3581,-1,8,8996
1359361155,5804,987.2500000000000000,250.8379058837890600,556.2913208007812000,5.7718119621276855,36.1130218505859400,57,115,99,78,81,12085,2146964544,2147521179,2147300690,2147525046,2147089856,2146920265,2147729417,2147121819,3517,-1,9,867
1359364755,5808,995.7399902343750000,251.6820983886718800,555.1729125976562000,5.8069691658020020,36.0520706176757800,58,118,97,78,80,12081,2146962285,2147519433,2147301897,2147524086,2147089298,2146924845,2147728969,2147121709,404,-1,9,57604
1359368355,5809,989.1599731445312000,250.7476959228515600,557.1629028320312000,5.7444062232971190,36.1336708068847660,57,115,99,79,79,12079,2146965321,2147516900,2147305142,2147523867,2147092726,2146924251,2147731300,2147121920,90,-1,8,25653
1359371955,5807,989.6500244140625000,249.6894073486328000,557.7199707031250000,5.7268891334533690,36.1956596374511700,57,117,98,80,80,12081,2146964589,2147518454,2147302619,2147525211,2147089408,2146920749,2147727762,2147121526,383,-1,8,2255
1359375555,5806,986.0700073242188000,250.9808959960937500,557.9318237304688000,5.7202258110046390,36.1364517211914060,58,119,98,79,80,12081,2146964187,2147518098,2147299986,2147526208,2147090889,2146923949,2147730139,2147123017,659,-1,9,3856
1359379155,5802,986.4400024414062000,253.1177062988281200,557.4780273437500000,5.7344970703125000,36.0237503051757800,57,119,98,78,80,12080,2146963574,2147518582,2147304082,2147522596,2147090331,2146917869,2147729545,2147121545,2994,-1,9,49564
1359382755,5806,986.3699951171875000,253.7752990722656200,558.1752929687500000,5.7125658988952640,36.0047111511230500,58,121,99,79,81,12081,2146965001,2147514770,2147302025,2147525293,2147091748,2146924681,2147731346,2147120256,3372,-1,9,51643
1359383155,5805,98.9000015258789000,253.5126953125000000,558.1514282226562000,5.7133178710937500,36.0169792175293000,58,121,98,79,81,12088,2146962550,2147516132,2147299666,2147523693,2147091382,2146923254,2147725796,2147120155,663,-1,8,7866
